Regional Weather Roundup
Issued by NWS

Home | Current Version | Previous Version | Text Only | Print | Product List | Glossary On
Versions: 1 2 3 4 5 6 7 8 9 10 11 12 13 14 15 16 17 18 19 20 21 22 23 24 25 26 27 28 29 30 31 32 33 34 35 36 37 38 39 40 41 42 43 44 45 46 47 48 49 50
622
ASUS43 KBIS 260602
RWRND

NORTH DAKOTA REGIONAL WEATHER ROUNDUP
NATIONAL WEATHER SERVICE BISMARCK ND
100 AM CDT TUE SEP 26 2017

NOTE: "FAIR" INDICATES FEW OR NO CLOUDS BELOW 12,000 FEET WITH NO
SIGNIFICANT WEATHER AND/OR OBSTRUCTIONS TO VISIBILITY.


NDZ001>003-009>011-017-260700-
NORTHWEST NORTH DAKOTA

CITY           SKY/WX    TMP DP  RH WIND       PRES   REMARKS
WILLISTON      CLOUDY    47  46  97 CALM      30.11F FOG
6HR MIN TEMP:  47; 6HR MAX TEMP:  48; 6HR PCP:  0.02;

MINOT          CLOUDY    49  45  86 CALM      30.12R
MINOT AFB      CLOUDY    49  45  85 CALM      30.11S
$$

NDZ018>021-031>035-040>046-260700-
SOUTHWEST NORTH DAKOTA

CITY           SKY/WX    TMP DP  RH WIND       PRES   REMARKS
BISMARCK       CLOUDY    48  45  89 CALM      30.13S
6HR MIN TEMP:  46; 6HR MAX TEMP:  52;

DICKINSON      CLOUDY    45  44  97 E3        30.09S
GARRISON         N/A     47  44  90 SE7       30.13R
6HR MIN TEMP:  47; 6HR MAX TEMP:  50; 6HR PCP:  0.01;

HETTINGER ARPT CLOUDY    44  41  89 E5        30.11F
$$

NDZ004>008-012>016-024-026-027-054-260700-
NORTHEAST NORTH DAKOTA

CITY           SKY/WX    TMP DP  RH WIND       PRES   REMARKS
GRAND FORKS    CLOUDY    51  49  92 N12       30.08F
GRND FRKS AFB  CLOUDY    50  47  91 N9        30.09F
DEVILS LAKE    CLOUDY    45  42  89 NE3       30.14R
$$

NDZ022-023-025-028>030-036>039-047>053-260700-
SOUTHEAST NORTH DAKOTA

CITY           SKY/WX    TMP DP  RH WIND       PRES   REMARKS
FARGO          LGT RAIN  50  50 100 N9        30.06F
6HR MIN TEMP:  50; 6HR MAX TEMP:  53; 6HR PCP:  0.08;

JAMESTOWN      LGT RAIN  48  45  89 NE5       30.09F
$$





USA.gov is the U.S. government's official web portal to all federal, state and local government web resources and services.